Location: Aciu?a
(46.2833°N, 22.4500°E)
Time: 06:05:57
(UTC+00:00)

COSMOS 2428 - Pass Details

Date: 25 October 2021
Orbit: 844 x 857 km, 70.9° (Epoch: 04 December)

Event Time Altitude Azimuth Distance (km) Brightness Sun altitude
Rises 17:29:50 0° 181° (S) 3,389 5.8 -21.9°
Reaches altitude 10° 17:32:24 10° 174° (S) 2,458 5.0 -22.4°
Enters shadow 17:34:43 23° 159° (SSE) 1,713 4.0 -22.8°
